Weather History for KMXF - February, 2014

Change the Weather History Date:

Monday, February 24, 2014

  Actual Average Record
Temperature  
Mean Temperature 60 °F -  
Max Temperature 71 °F 63 °F 76 °F (2011)
Min Temperature 48 °F 43 °F 30 °F (1999)
Degree Days  
Heating Degree Days 4    
Growing Degree Days 10 (Base 50)    
Moisture  
Dew Point 50 °F    
Average Humidity 75    
Maximum Humidity 100    
Minimum Humidity 36    
Precipitation  
Precipitation 0.00 in - - ()
Sea Level Pressure  
Sea Level Pressure 30.06 in    
Wind  
Wind Speed 5 mph (NW)    
Max Wind Speed 14 mph    
Max Gust Speed -    
Visibility 7 miles    
Events Fog    
Averages and records for this station are not official NWS values.
T = Trace of Precipitation, MM = Missing Value Source: NWS Daily Summary

Daily Weather History Graph

Daily Weather History Graph

Search for Another Location

Airport or City:

Trip Planner

Search our weather history database for the weather conditions in past years. The results will help you decide how hot, cold, wet, or windy it might be!

Date:

Astronomy

Feb. 24, 2014 Rise Set
Actual Time 6:18 AM CST 5:39 PM CST
Civil Twilight 5:53 AM CST 6:03 PM CST
Nautical Twilight 5:25 AM CST 6:32 PM CST
Astronomical Twilight 4:57 AM CST 7:00 PM CST
Moon 2:06 AM CST (2/24) 12:49 PM CST (2/24)
Length of Visible Light 12h 09m
Length of Day
11h 20m
Waning Crescent, 28% of the Moon is Illuminated
Feb 24
Waning Crescent
Mar 1
New
Mar 8
First Quarter
Mar 16
Full
Mar 23
Last Quarter

Hourly Weather History & Observations

Time (CST) Temp. Dew Point Humidity Pressure Visibility Wind Dir Wind Speed Gust Speed Precip Events Conditions
12:08 AM 59.0 °F 59.0 °F 100% 30.03 in 0.5 mi Variable 1.2 mph - N/A Fog Fog
12:28 AM 59.0 °F 59.0 °F 100% 30.02 in 0.8 mi WSW 3.5 mph - N/A   Mist
12:38 AM 59.0 °F 59.0 °F 100% 30.02 in 0.8 mi Variable 4.6 mph - N/A   Mist
12:43 AM 59.0 °F 59.0 °F 100% 30.02 in 1.2 mi Variable 3.5 mph - N/A   Overcast
12:48 AM 59.0 °F 59.0 °F 100% 30.02 in 1.5 mi WSW 4.6 mph - N/A   Overcast
12:58 AM 58.5 °F 58.1 °F 99% 30.03 in 1.8 mi Variable 4.6 mph - N/A   Overcast
1:13 AM 59.0 °F 57.2 °F 94% 30.02 in 2.0 mi West 4.6 mph - N/A   Overcast
1:18 AM 59.0 °F 57.2 °F 94% 30.02 in 2.5 mi West 5.8 mph - N/A   Overcast
1:23 AM 59.0 °F 57.2 °F 94% 30.02 in 2.5 mi WSW 4.6 mph - N/A   Overcast
1:28 AM 59.0 °F 57.2 °F 94% 30.02 in 3.0 mi Variable 3.5 mph - N/A   Overcast
1:38 AM 59.0 °F 57.2 °F 94% 30.02 in 6.0 mi West 4.6 mph - N/A   Overcast
1:48 AM 59.0 °F 57.2 °F 94% 30.02 in 6.0 mi WNW 3.5 mph - N/A   Overcast
1:53 AM 59.0 °F 57.2 °F 94% 30.02 in 6.0 mi West 3.5 mph - N/A   Overcast
1:58 AM 58.3 °F 57.9 °F 99% 30.03 in 5.0 mi WNW 4.6 mph - N/A   Overcast
2:13 AM 59.0 °F 57.2 °F 94% 30.02 in 3.0 mi WNW 3.5 mph - N/A   Overcast
2:18 AM 59.0 °F 57.2 °F 94% 30.01 in 3.0 mi West 2.3 mph - N/A   Overcast
2:23 AM 59.0 °F 57.2 °F 94% 30.01 in 3.0 mi WNW 4.6 mph - N/A   Overcast
2:38 AM 59.0 °F 57.2 °F 94% 30.01 in 5.0 mi WNW 5.8 mph - N/A   Overcast
2:58 AM 58.1 °F 57.7 °F 99% 30.03 in 4.0 mi Variable 4.6 mph - N/A   Overcast
3:58 AM 57.9 °F 57.6 °F 99% 30.05 in 9.0 mi NW 6.9 mph - N/A   Overcast
4:13 AM 57.2 °F 57.2 °F 100% 30.04 in 10.0 mi NNW 6.9 mph - N/A   Overcast
4:28 AM 57.2 °F 57.2 °F 100% 30.05 in 10.0 mi NNW 11.5 mph - N/A   Mostly Cloudy
4:43 AM 55.4 °F 55.4 °F 100% 30.05 in 10.0 mi NNW 12.7 mph - N/A   Scattered Clouds
4:58 AM 55.4 °F 50.9 °F 85% 30.07 in 10.0 mi North 13.8 mph - N/A   Partly Cloudy
5:58 AM 51.8 °F 44.4 °F 76% 30.10 in 10.0 mi North 10.4 mph - N/A   Clear
6:58 AM 50.5 °F 42.1 °F 73% 30.13 in 10.0 mi North 6.9 mph - N/A   Clear
7:58 AM 52.5 °F 40.8 °F 64% 30.16 in 10.0 mi North 9.2 mph - N/A   Clear
8:58 AM 55.8 °F 41.2 °F 58% 30.17 in 10.0 mi NNE 6.9 mph - N/A   Clear
9:58 AM 58.3 °F 41.5 °F 54% 30.16 in 10.0 mi Variable 1.2 mph - N/A   Clear
10:58 AM 61.0 °F 42.4 °F 51% 30.15 in 10.0 mi Variable 1.2 mph - N/A   Clear
11:58 AM 63.9 °F 43.0 °F 47% 30.11 in 10.0 mi South 2.3 mph - N/A   Clear
12:55 PM 67.3 °F 43.5 °F 42% 30.09 in 10.0 mi Variable 4.6 mph - N/A   Scattered Clouds
1:58 PM 70.3 °F 43.9 °F 38% 30.07 in 8.0 mi North 3.5 mph - N/A   Clear
2:53 PM 71.6 °F 44.6 °F 38% 30.05 in 2.5 mi North 10.4 mph - N/A   Haze
2:58 PM 70.9 °F 44.1 °F 38% 30.06 in 2.5 mi NNW 9.2 mph - N/A   Haze
3:03 PM 69.8 °F 44.6 °F 40% 30.06 in 10.0 mi NNW 11.5 mph - N/A   Clear
3:08 PM 69.8 °F 42.8 °F 38% 30.05 in 10.0 mi North 6.9 mph - N/A   Clear
3:58 PM 69.3 °F 41.7 °F 37% 30.08 in 10.0 mi NNW 10.4 mph - N/A   Partly Cloudy
4:58 PM 65.8 °F 37.9 °F 36% 30.10 in 10.0 mi North 11.5 mph - N/A   Mostly Cloudy
5:58 PM 63.0 °F 37.0 °F 38% 30.11 in 10.0 mi NNE 10.4 mph - N/A   Scattered Clouds
6:58 PM 59.5 °F 37.6 °F 44% 30.11 in 10.0 mi NNE 5.8 mph - N/A   Overcast
7:58 PM 58.8 °F 37.2 °F 45% 30.11 in 10.0 mi North 3.5 mph - N/A   Overcast
8:58 PM 54.1 °F 40.1 °F 59% 30.11 in 10.0 mi Calm Calm - N/A   Partly Cloudy
9:58 PM 54.0 °F 44.6 °F 71% 30.11 in 10.0 mi North 3.5 mph - N/A   Mostly Cloudy
10:58 PM 51.6 °F 38.3 °F 60% 30.09 in 10.0 mi Calm Calm - N/A   Partly Cloudy
11:58 PM 48.2 °F 40.6 °F 75% 30.09 in 10.0 mi WNW 2.3 mph - N/A   Partly Cloudy